Flag for Germany Weather past 2 weeks in Erkrath, North Rhine-Westphalia, Germany

Now
41 °F

Broken clouds.


Feels Like: 35 °F
Forecast: 38 / 44 °F
Wind: 10 mph from Northwest

Location: Duesseldorf

Current Time: Jan 27, 2015 at 2:30:58 PM

Latest Report: Jan 27, 2015 at 1:50 PM


Visibility: N/A

Pressure: 30.18 "Hg

Humidity: 87%

Dew point: 37 °F

Location of ErkrathLocation

Historic Weather in Erkrath — Graph

°F

Erkrath temperature yesterday

Maximum temperature yesterday: 45 °F (at 5:50 PM)
Minimum temperature yesterday: 36 °F (at 12:20 AM)
Average temperature yesterday: 39 °F

Past Weeks' High & Low Weather Summary

 TemperatureHumidityPressure
High54 °F (Jan 13, 10:50 AM)100% (Jan 17, 8:20 AM)30.42 "Hg (Jan 17, 8:20 AM)
Low25 °F (Jan 25, 2:20 AM)52% (Jan 21, 1:20 PM)29.42 "Hg (Jan 15, 3:20 PM)
Average38 °F82%29.96 "Hg
* Reported Jan 12 1:20 PM — Jan 27 1:20 PM, Erkrath, Weather by CustomWeather, © 2014

Note: Actual official high and low records may vary slightly from our data, if they occured in-between our weather recording intervals... More about our weather records

Advertising

Erkrath weather history for previous 24 hours

 ConditionsComfort  
Time TempWeatherWind HumidityBarometerVisibility
1:20 PM
Jan 27
41 °FBroken clouds.9 mph87%30.18 "HgN/A
12:50 PM41 °FSprinkles. Broken clouds.10 mph87%30.18 "HgN/A
12:20 PM41 °FSprinkles. Broken clouds.10 mph87%30.18 "HgN/A
11:50 AM41 °FScattered showers. Broken clouds.8 mph93%30.18 "HgN/A
11:20 AM39 °FPartly sunny.7 mph93%30.21 "HgN/A
10:50 AM39 °FSprinkles. Partly sunny.9 mph93%30.21 "HgN/A
10:20 AM39 °FPartly sunny.8 mph93%30.21 "HgN/A
9:50 AM37 °FPassing clouds.9 mph93%30.18 "HgN/A
9:20 AM37 °FPartly sunny.9 mph93%30.18 "HgN/A
8:50 AM37 °FSprinkles. Broken clouds.12 mph93%30.18 "HgN/A
8:20 AM37 °FPartly sunny.10 mph87%30.18 "HgN/A
7:50 AM37 °FPassing clouds.9 mph87%30.18 "HgN/A
7:20 AM36 °FPassing clouds.9 mph93%30.15 "HgN/A
6:50 AM37 °FPassing clouds.9 mph87%30.18 "HgN/A
6:20 AM37 °FPassing clouds.8 mph87%30.18 "HgN/A
5:50 AM37 °FPassing clouds.9 mph87%30.18 "HgN/A
5:20 AM37 °FPartly cloudy.9 mph87%30.18 "HgN/A
4:50 AM37 °FPassing clouds.8 mph87%30.15 "HgN/A
4:20 AM36 °FPassing clouds.7 mph93%30.15 "HgN/A
3:50 AM36 °FPassing clouds.7 mph93%30.15 "HgN/A
3:20 AM37 °FPassing clouds.8 mph87%30.15 "HgN/A
2:50 AM37 °FPassing clouds.8 mph93%30.15 "HgN/A
2:20 AM37 °FPassing clouds.7 mph87%30.15 "HgN/A
1:50 AM37 °FPassing clouds.7 mph93%30.15 "HgN/A
1:20 AM39 °FPassing clouds.8 mph87%30.12 "HgN/A
12:50 AM39 °FPassing clouds.12 mph87%30.15 "HgN/A
12:20 AM39 °FPartly cloudy.10 mph87%30.12 "HgN/A
11:50 PM
Jan 26
39 °FPassing clouds.10 mph87%30.12 "HgN/A
11:20 PM41 °FPartly cloudy.12 mph87%30.12 "HgN/A
10:50 PM41 °FPartly cloudy.10 mph87%30.12 "HgN/A
10:20 PM41 °FPartly cloudy.9 mph87%30.09 "HgN/A
9:50 PM39 °FPassing clouds.7 mph93%30.09 "HgN/A
9:20 PM41 °FPassing clouds.8 mph87%30.09 "HgN/A
8:50 PM41 °FPassing clouds.7 mph87%30.09 "HgN/A
8:20 PM41 °FPartly cloudy.12 mph81%30.09 "HgN/A
7:50 PM43 °FScattered showers. Partly cloudy.9 mph87%30.09 "HgN/A
7:20 PM43 °FPartly cloudy.12 mph87%30.07 "HgN/A
6:50 PM43 °FPartly cloudy.10 mph93%30.07 "HgN/A
6:20 PM45 °FPartly cloudy.9 mph87%30.07 "HgN/A
5:50 PM45 °FLight rain. Passing clouds.10 mph93%30.04 "HgN/A
5:20 PM43 °FLight rain. Partly cloudy.12 mph100%30.04 "Hg4 mi
4:50 PM43 °FDrizzle. Fog.7 mph100%30.01 "Hg1 mi
4:20 PM41 °FDrizzle. Fog.7 mph100%30.01 "Hg2 mi
3:50 PM41 °FDrizzle. Fog.7 mph100%30.04 "Hg1 mi
3:20 PM41 °FDrizzle. Fog.10 mph100%30.04 "Hg1 mi
2:50 PM41 °FDrizzle. Fog.9 mph100%30.04 "Hg2 mi
2:20 PM39 °FDrizzle. Fog.12 mph100%30.04 "Hg1 mi
Weather by CustomWeather, © 2014

See weather overviewHow to use our weather pages